owner,sensor,date,latitude,longitude,vertical_datum,wind_speed,wind_to_direction,wind_speed_of_gust,qcFlag 
TCOON,ioos:station:TCOON:009:1,2009-07-01T00:00:00Z,27.8398,-97.0727,0.0,3.6,140.0,5.6,'11111222,11111222,11111222' 
TCOON,ioos:station:TCOON:009:1,2009-07-01T01:00:00Z,27.8398,-97.0727,0.0,4.1,146.0,6.2,'11111222,11111222,11111222' 
TCOON,ioos:station:TCOON:009:1,2009-07-01T03:00:00Z,27.8398,-97.0727,0.0,3.4,152.0,4.8,'11111222,11111222,11111222' 
TCOON,ioos:station:TCOON:009:1,2009-07-01T04:00:00Z,27.8398,-97.0727,0.0,2.3,154.0,3.9,'11111222,11111222,11111222' 
TCOON,ioos:station:TCOON:009:1,2009-07-01T05:00:00Z,27.8398,-97.0727,0.0,2.7,157.0,3.8,'11111222,11111222,11111222' 
TCOON,ioos:station:TCOON:009:1,2009-07-01T06:00:00Z,27.8398,-97.0727,0.0,1.9,145.0,2.8,'11111222,11111222,11111222' 
TCOON,ioos:station:TCOON:009:1,2009-07-01T07:00:00Z,27.8398,-97.0727,0.0,2.1,168.0,3.5,'11111222,11111222,11111222' 
TCOON,ioos:station:TCOON:009:1,2009-07-01T08:00:00Z,27.8398,-97.0727,0.0,0.2,184.0,1.3,'11111222,11111222,11111222' 
TCOON,ioos:station:TCOON:009:1,2009-07-01T09:00:00Z,27.8398,-97.0727,0.0,1.2,203.0,1.8,'11111222,11111222,11111222' 
TCOON,ioos:station:TCOON:009:1,2009-07-01T10:00:00Z,27.8398,-97.0727,0.0,2.1,216.0,2.6,'11111222,11111222,11111222' 
TCOON,ioos:station:TCOON:009:1,2009-07-01T11:00:00Z,27.8398,-97.0727,0.0,2.0,225.0,2.7,'11111222,11111222,11111222' 
TCOON,ioos:station:TCOON:009:1,2009-07-01T12:00:00Z,27.8398,-97.0727,0.0,0.8,197.0,1.3,'11111222,11111222,11111222' 
TCOON,ioos:station:TCOON:009:1,2009-07-01T13:00:00Z,27.8398,-97.0727,0.0,0.7,194.0,1.2,'11111222,11111222,11111222' 
TCOON,ioos:station:TCOON:009:1,2009-07-01T14:00:00Z,27.8398,-97.0727,0.0,0.2,299.0,0.3,'11111222,11111222,11111222' 
TCOON,ioos:station:TCOON:009:1,2009-07-01T15:00:00Z,27.8398,-97.0727,0.0,0.7,24.0,0.9,'11111222,11111222,11111222' 
TCOON,ioos:station:TCOON:009:1,2009-07-01T16:00:00Z,27.8398,-97.0727,0.0,2.3,170.0,4.0,'11111222,11111222,11111222' 
TCOON,ioos:station:TCOON:009:1,2009-07-01T17:00:00Z,27.8398,-97.0727,0.0,2.5,184.0,3.1,'11111222,11111222,11111222' 
TCOON,ioos:station:TCOON:009:1,2009-07-01T18:00:00Z,27.8398,-97.0727,0.0,3.6,153.0,5.1,'11111222,11111222,11111222' 
TCOON,ioos:station:TCOON:009:1,2009-07-01T19:00:00Z,27.8398,-97.0727,0.0,3.5,150.0,5.0,'11111222,11111222,11111222' 
TCOON,ioos:station:TCOON:009:1,2009-07-01T20:00:00Z,27.8398,-97.0727,0.0,3.7,139.0,6.2,'11111222,11111222,11111222' 
TCOON,ioos:station:TCOON:009:1,2009-07-01T21:00:00Z,27.8398,-97.0727,0.0,4.3,123.0,6.6,'11111222,11111222,11111222' 
TCOON,ioos:station:TCOON:009:1,2009-07-01T22:00:00Z,27.8398,-97.0727,0.0,4.8,121.0,6.1,'11111222,11111222,11111222' 
TCOON,ioos:station:TCOON:009:1,2009-07-01T23:00:00Z,27.8398,-97.0727,0.0,6.5,133.0,7.7,'11111222,11111222,11111222' 
TCOON,ioos:station:TCOON:009:1,2009-07-02T00:00:00Z,27.8398,-97.0727,0.0,4.6,133.0,6.6,'11111222,11111222,11111222' 
TCOON,ioos:station:TCOON:009:1,2009-07-02T01:00:00Z,27.8398,-97.0727,0.0,4.6,133.0,6.2,'11111222,11111222,11111222' 
TCOON,ioos:station:TCOON:009:1,2009-07-02T02:00:00Z,27.8398,-97.0727,0.0,3.4,146.0,5.7,'11111222,11111222,11111222' 
TCOON,ioos:station:TCOON:009:1,2009-07-02T03:00:00Z,27.8398,-97.0727,0.0,3.2,136.0,4.1,'11111222,11111222,11111222' 
TCOON,ioos:station:TCOON:009:1,2009-07-02T04:00:00Z,27.8398,-97.0727,0.0,3.0,148.0,5.1,'11111222,11111222,11111222' 
TCOON,ioos:station:TCOON:009:1,2009-07-02T05:00:00Z,27.8398,-97.0727,0.0,2.1,151.0,3.9,'11111222,11111222,11111222' 
TCOON,ioos:station:TCOON:009:1,2009-07-02T06:00:00Z,27.8398,-97.0727,0.0,2.3,173.0,3.3,'11111222,11111222,11111222' 
TCOON,ioos:station:TCOON:009:1,2009-07-02T07:00:00Z,27.8398,-97.0727,0.0,2.1,186.0,3.1,'11111222,11111222,11111222' 
TCOON,ioos:station:TCOON:009:1,2009-07-02T08:00:00Z,27.8398,-97.0727,0.0,1.2,196.0,2.3,'11111222,11111222,11111222' 
TCOON,ioos:station:TCOON:009:1,2009-07-02T09:00:00Z,27.8398,-97.0727,0.0,1.9,188.0,2.9,'11111222,11111222,11111222' 
TCOON,ioos:station:TCOON:009:1,2009-07-02T10:00:00Z,27.8398,-97.0727,0.0,0.8,202.0,1.1,'11111222,11111222,11111222' 
TCOON,ioos:station:TCOON:009:1,2009-07-02T11:00:00Z,27.8398,-97.0727,0.0,1.0,358.0,1.1,'11111222,11111222,11111222' 
TCOON,ioos:station:TCOON:009:1,2009-07-02T12:00:00Z,27.8398,-97.0727,0.0,0.0,68.0,99.0,'11111222,11111222,11144222' 
TCOON,ioos:station:TCOON:009:1,2009-07-02T13:00:00Z,27.8398,-97.0727,0.0,0.7,55.0,0.7,'11111222,11111222,11111222' 
TCOON,ioos:station:TCOON:009:1,2009-07-02T14:00:00Z,27.8398,-97.0727,0.0,1.4,281.0,1.6,'11111222,11111222,11111222' 
TCOON,ioos:station:TCOON:009:1,2009-07-02T15:00:00Z,27.8398,-97.0727,0.0,1.2,78.0,1.9,'11111222,11111222,11111222' 
TCOON,ioos:station:TCOON:009:1,2009-07-02T16:00:00Z,27.8398,-97.0727,0.0,2.7,92.0,3.4,'11111222,11111222,11111222' 
TCOON,ioos:station:TCOON:009:1,2009-07-02T17:00:00Z,27.8398,-97.0727,0.0,3.9,93.0,5.4,'11111222,11111222,11111222' 
TCOON,ioos:station:TCOON:009:1,2009-07-02T18:00:00Z,27.8398,-97.0727,0.0,5.9,80.0,6.5,'11111222,11111222,11111222' 
TCOON,ioos:station:TCOON:009:1,2009-07-02T19:00:00Z,27.8398,-97.0727,0.0,5.0,88.0,6.6,'11111222,11111222,11111222' 
TCOON,ioos:station:TCOON:009:1,2009-07-02T20:00:00Z,27.8398,-97.0727,0.0,6.5,120.0,8.9,'11111222,11111222,11111222' 
TCOON,ioos:station:TCOON:009:1,2009-07-02T21:00:00Z,27.8398,-97.0727,0.0,6.5,125.0,8.0,'11111222,11111222,11111222' 
TCOON,ioos:station:TCOON:009:1,2009-07-02T22:00:00Z,27.8398,-97.0727,0.0,6.5,118.0,8.5,'11111222,11111222,11111222' 
TCOON,ioos:station:TCOON:009:1,2009-07-02T23:00:00Z,27.8398,-97.0727,0.0,6.0,126.0,7.8,'11111222,11111222,11111222' 
TCOON,ioos:station:TCOON:009:1,2009-07-03T00:00:00Z,27.8398,-97.0727,0.0,5.4,127.0,7.1,'11111222,11111222,11111222' 
TCOON,ioos:station:TCOON:009:1,2009-07-03T01:00:00Z,27.8398,-97.0727,0.0,4.4,110.0,5.6,'11111222,11111222,11111222' 
TCOON,ioos:station:TCOON:009:1,2009-07-03T02:00:00Z,27.8398,-97.0727,0.0,4.2,121.0,5.7,'11111222,11111222,11111222' 
TCOON,ioos:station:TCOON:009:1,2009-07-03T03:00:00Z,27.8398,-97.0727,0.0,3.0,121.0,3.8,'11111222,11111222,11111222' 
TCOON,ioos:station:TCOON:009:1,2009-07-03T04:00:00Z,27.8398,-97.0727,0.0,2.5,140.0,3.4,'11111222,11111222,11111222' 
TCOON,ioos:station:TCOON:009:1,2009-07-03T05:00:00Z,27.8398,-97.0727,0.0,3.2,132.0,4.3,'11111222,11111222,11111222' 
TCOON,ioos:station:TCOON:009:1,2009-07-03T06:00:00Z,27.8398,-97.0727,0.0,1.7,144.0,3.0,'11111222,11111222,11111222' 
TCOON,ioos:station:TCOON:009:1,2009-07-03T07:00:00Z,27.8398,-97.0727,0.0,2.5,145.0,3.4,'11111222,11111222,11111222' 
TCOON,ioos:station:TCOON:009:1,2009-07-03T08:00:00Z,27.8398,-97.0727,0.0,2.2,172.0,2.9,'11111222,11111222,11111222' 
TCOON,ioos:station:TCOON:009:1,2009-07-03T09:00:00Z,27.8398,-97.0727,0.0,0.9,204.0,1.6,'11111222,11111222,11111222' 
TCOON,ioos:station:TCOON:009:1,2009-07-03T10:00:00Z,27.8398,-97.0727,0.0,0.8,172.0,1.1,'11111222,11111222,11111222' 
TCOON,ioos:station:TCOON:009:1,2009-07-03T11:00:00Z,27.8398,-97.0727,0.0,1.1,174.0,1.4,'11111222,11111222,11111222' 
TCOON,ioos:station:TCOON:009:1,2009-07-03T12:00:00Z,27.8398,-97.0727,0.0,1.6,132.0,2.2,'11111222,11111222,11111222' 
TCOON,ioos:station:TCOON:009:1,2009-07-03T13:00:00Z,27.8398,-97.0727,0.0,2.0,131.0,3.1,'11111222,11111222,11111222' 
TCOON,ioos:station:TCOON:009:1,2009-07-03T14:00:00Z,27.8398,-97.0727,0.0,1.8,205.0,2.8,'11111222,11111222,11111222' 
TCOON,ioos:station:TCOON:009:1,2009-07-03T15:00:00Z,27.8398,-97.0727,0.0,2.6,166.0,4.1,'11111222,11111222,11111222' 
TCOON,ioos:station:TCOON:009:1,2009-07-03T16:00:00Z,27.8398,-97.0727,0.0,3.7,124.0,7.1,'11111222,11111222,11111222' 
TCOON,ioos:station:TCOON:009:1,2009-07-03T17:00:00Z,27.8398,-97.0727,0.0,3.1,149.0,4.9,'11111222,11111222,11111222' 
TCOON,ioos:station:TCOON:009:1,2009-07-03T18:00:00Z,27.8398,-97.0727,0.0,5.3,123.0,6.6,'11111222,11111222,11111222' 
TCOON,ioos:station:TCOON:009:1,2009-07-03T19:00:00Z,27.8398,-97.0727,0.0,5.8,115.0,7.3,'11111222,11111222,11111222' 
TCOON,ioos:station:TCOON:009:1,2009-07-03T20:00:00Z,27.8398,-97.0727,0.0,4.7,125.0,6.2,'11111222,11111222,11111222' 
TCOON,ioos:station:TCOON:009:1,2009-07-03T21:00:00Z,27.8398,-97.0727,0.0,4.9,137.0,6.8,'11111222,11111222,11111222' 
TCOON,ioos:station:TCOON:009:1,2009-07-03T22:00:00Z,27.8398,-97.0727,0.0,5.7,123.0,7.7,'11111222,11111222,11111222' 
TCOON,ioos:station:TCOON:009:1,2009-07-03T23:00:00Z,27.8398,-97.0727,0.0,5.6,127.0,7.1,'11111222,11111222,11111222' 
TCOON,ioos:station:TCOON:009:1,2009-07-04T00:00:00Z,27.8398,-97.0727,0.0,6.6,130.0,8.0,'11111222,11111222,11111222' 
TCOON,ioos:station:TCOON:009:1,2009-07-04T01:00:00Z,27.8398,-97.0727,0.0,6.2,134.0,8.7,'11111222,11111222,11111222' 
TCOON,ioos:station:TCOON:009:1,2009-07-04T02:00:00Z,27.8398,-97.0727,0.0,4.2,126.0,6.2,'11111222,11111222,11111222' 
TCOON,ioos:station:TCOON:009:1,2009-07-04T03:00:00Z,27.8398,-97.0727,0.0,4.9,143.0,6.9,'11111222,11111222,11111222' 
TCOON,ioos:station:TCOON:009:1,2009-07-04T04:00:00Z,27.8398,-97.0727,0.0,3.6,147.0,6.0,'11111222,11111222,11111222' 
TCOON,ioos:station:TCOON:009:1,2009-07-04T05:00:00Z,27.8398,-97.0727,0.0,2.5,161.0,4.0,'11111222,11111222,11111222' 
TCOON,ioos:station:TCOON:009:1,2009-07-04T06:00:00Z,27.8398,-97.0727,0.0,3.2,160.0,5.3,'11111222,11111222,11111222' 
TCOON,ioos:station:TCOON:009:1,2009-07-04T07:00:00Z,27.8398,-97.0727,0.0,3.4,170.0,5.0,'11111222,11111222,11111222' 
TCOON,ioos:station:TCOON:009:1,2009-07-04T08:00:00Z,27.8398,-97.0727,0.0,4.1,173.0,6.2,'11111222,11111222,11111222' 
TCOON,ioos:station:TCOON:009:1,2009-07-04T09:00:00Z,27.8398,-97.0727,0.0,3.9,179.0,5.3,'11111222,11111222,11111222' 
TCOON,ioos:station:TCOON:009:1,2009-07-04T10:00:00Z,27.8398,-97.0727,0.0,2.6,176.0,4.4,'11111222,11111222,11111222' 
TCOON,ioos:station:TCOON:009:1,2009-07-04T11:00:00Z,27.8398,-97.0727,0.0,3.6,173.0,4.8,'11111222,11111222,11111222' 
TCOON,ioos:station:TCOON:009:1,2009-07-04T12:00:00Z,27.8398,-97.0727,0.0,4.1,186.0,6.6,'11111222,11111222,11111222' 
TCOON,ioos:station:TCOON:009:1,2009-07-04T13:00:00Z,27.8398,-97.0727,0.0,3.6,194.0,5.8,'11111222,11111222,11111222' 
TCOON,ioos:station:TCOON:009:1,2009-07-04T14:00:00Z,27.8398,-97.0727,0.0,6.1,187.0,8.2,'11111222,11111222,11111222' 
TCOON,ioos:station:TCOON:009:1,2009-07-04T15:00:00Z,27.8398,-97.0727,0.0,5.8,192.0,8.2,'11111222,11111222,11111222' 
TCOON,ioos:station:TCOON:009:1,2009-07-04T16:00:00Z,27.8398,-97.0727,0.0,6.7,184.0,9.4,'11111222,11111222,11111222' 
TCOON,ioos:station:TCOON:009:1,2009-07-04T17:00:00Z,27.8398,-97.0727,0.0,4.9,171.0,7.2,'11111222,11111222,11111222' 
TCOON,ioos:station:TCOON:009:1,2009-07-04T18:00:00Z,27.8398,-97.0727,0.0,4.4,170.0,7.6,'11111222,11111222,11111222' 
TCOON,ioos:station:TCOON:009:1,2009-07-04T19:00:00Z,27.8398,-97.0727,0.0,3.9,146.0,7.2,'11111222,11111222,11111222' 
TCOON,ioos:station:TCOON:009:1,2009-07-04T20:00:00Z,27.8398,-97.0727,0.0,6.3,140.0,18.2,'11111222,11111222,11111222' 
TCOON,ioos:station:TCOON:009:1,2009-07-04T21:00:00Z,27.8398,-97.0727,0.0,5.7,134.0,8.3,'11111222,11111222,11111222' 
TCOON,ioos:station:TCOON:009:1,2009-07-04T22:00:00Z,27.8398,-97.0727,0.0,6.0,137.0,9.6,'11111222,11111222,11111222' 
TCOON,ioos:station:TCOON:009:1,2009-07-04T23:00:00Z,27.8398,-97.0727,0.0,4.5,150.0,9.7,'11111222,11111222,11111222' 
TCOON,ioos:station:TCOON:009:1,2009-07-05T00:00:00Z,27.8398,-97.0727,0.0,5.6,147.0,9.5,'11111222,11111222,11111222' 
TCOON,ioos:station:TCOON:009:1,2009-07-05T01:00:00Z,27.8398,-97.0727,0.0,5.5,154.0,7.9,'11111222,11111222,11111222' 
TCOON,ioos:station:TCOON:009:1,2009-07-05T02:00:00Z,27.8398,-97.0727,0.0,5.2,153.0,8.0,'11111222,11111222,11111222' 
TCOON,ioos:station:TCOON:009:1,2009-07-05T03:00:00Z,27.8398,-97.0727,0.0,4.8,162.0,7.7,'11111222,11111222,11111222' 
TCOON,ioos:station:TCOON:009:1,2009-07-05T04:00:00Z,27.8398,-97.0727,0.0,4.5,168.0,6.9,'11111222,11111222,11111222' 
TCOON,ioos:station:TCOON:009:1,2009-07-05T05:00:00Z,27.8398,-97.0727,0.0,3.5,164.0,6.0,'11111222,11111222,11111222' 
TCOON,ioos:station:TCOON:009:1,2009-07-05T06:00:00Z,27.8398,-97.0727,0.0,4.4,175.0,7.2,'11111222,11111222,11111222' 
TCOON,ioos:station:TCOON:009:1,2009-07-05T07:00:00Z,27.8398,-97.0727,0.0,3.9,177.0,5.7,'11111222,11111222,11111222' 
TCOON,ioos:station:TCOON:009:1,2009-07-05T08:00:00Z,27.8398,-97.0727,0.0,4.8,179.0,7.4,'11111222,11111222,11111222' 
TCOON,ioos:station:TCOON:009:1,2009-07-05T09:00:00Z,27.8398,-97.0727,0.0,4.3,180.0,7.4,'11111222,11111222,11111222' 
TCOON,ioos:station:TCOON:009:1,2009-07-05T10:00:00Z,27.8398,-97.0727,0.0,5.2,188.0,10.3,'11111222,11111222,11111222' 
TCOON,ioos:station:TCOON:009:1,2009-07-05T11:00:00Z,27.8398,-97.0727,0.0,6.3,188.0,10.3,'11111222,11111222,11111222' 
TCOON,ioos:station:TCOON:009:1,2009-07-05T12:00:00Z,27.8398,-97.0727,0.0,6.1,184.0,8.1,'11111222,11111222,11111222' 
TCOON,ioos:station:TCOON:009:1,2009-07-05T13:00:00Z,27.8398,-97.0727,0.0,6.7,184.0,8.2,'11111222,11111222,11111222' 
TCOON,ioos:station:TCOON:009:1,2009-07-05T14:00:00Z,27.8398,-97.0727,0.0,6.0,188.0,8.5,'11111222,11111222,11111222' 
TCOON,ioos:station:TCOON:009:1,2009-07-05T15:00:00Z,27.8398,-97.0727,0.0,6.2,183.0,8.7,'11111222,11111222,11111222' 
TCOON,ioos:station:TCOON:009:1,2009-07-05T16:00:00Z,27.8398,-97.0727,0.0,7.4,186.0,9.7,'11111222,11111222,11111222' 
TCOON,ioos:station:TCOON:009:1,2009-07-05T17:00:00Z,27.8398,-97.0727,0.0,3.8,170.0,6.0,'11111222,11111222,11111222' 
TCOON,ioos:station:TCOON:009:1,2009-07-05T18:00:00Z,27.8398,-97.0727,0.0,4.9,158.0,7.9,'11111222,11111222,11111222' 
TCOON,ioos:station:TCOON:009:1,2009-07-05T19:00:00Z,27.8398,-97.0727,0.0,5.0,154.0,9.7,'11111222,11111222,11111222' 
TCOON,ioos:station:TCOON:009:1,2009-07-05T20:00:00Z,27.8398,-97.0727,0.0,6.3,154.0,10.3,'11111222,11111222,11111222' 
TCOON,ioos:station:TCOON:009:1,2009-07-05T21:00:00Z,27.8398,-97.0727,0.0,6.5,152.0,11.1,'11111222,11111222,11111222' 
TCOON,ioos:station:TCOON:009:1,2009-07-05T22:00:00Z,27.8398,-97.0727,0.0,8.1,154.0,11.4,'11111222,11111222,11111222' 
TCOON,ioos:station:TCOON:009:1,2009-07-05T23:00:00Z,27.8398,-97.0727,0.0,5.4,168.0,10.7,'11111222,11111222,11111222' 
TCOON,ioos:station:TCOON:009:1,2009-07-06T00:00:00Z,27.8398,-97.0727,0.0,5.4,153.0,9.5,'11111222,11111222,11111222' 
TCOON,ioos:station:TCOON:009:1,2009-07-06T01:00:00Z,27.8398,-97.0727,0.0,3.5,148.0,5.3,'11111222,11111222,11111222' 
TCOON,ioos:station:TCOON:009:1,2009-07-06T02:00:00Z,27.8398,-97.0727,0.0,3.5,157.0,5.4,'11111222,11111222,11111222' 
TCOON,ioos:station:TCOON:009:1,2009-07-06T03:00:00Z,27.8398,-97.0727,0.0,3.1,159.0,4.7,'11111222,11111222,11111222' 
TCOON,ioos:station:TCOON:009:1,2009-07-06T04:00:00Z,27.8398,-97.0727,0.0,3.1,152.0,4.7,'11111222,11111222,11111222' 
TCOON,ioos:station:TCOON:009:1,2009-07-06T05:00:00Z,27.8398,-97.0727,0.0,3.1,154.0,4.6,'11111222,11111222,11111222' 
TCOON,ioos:station:TCOON:009:1,2009-07-06T06:00:00Z,27.8398,-97.0727,0.0,4.2,159.0,8.0,'11111222,11111222,11111222' 
TCOON,ioos:station:TCOON:009:1,2009-07-06T07:00:00Z,27.8398,-97.0727,0.0,3.2,169.0,5.2,'11111222,11111222,11111222' 
TCOON,ioos:station:TCOON:009:1,2009-07-06T08:00:00Z,27.8398,-97.0727,0.0,4.7,183.0,6.1,'11111222,11111222,11111222' 
TCOON,ioos:station:TCOON:009:1,2009-07-06T09:00:00Z,27.8398,-97.0727,0.0,3.0,177.0,5.2,'11111222,11111222,11111222' 
TCOON,ioos:station:TCOON:009:1,2009-07-06T10:00:00Z,27.8398,-97.0727,0.0,3.5,186.0,4.9,'11111222,11111222,11111222' 
TCOON,ioos:station:TCOON:009:1,2009-07-06T11:00:00Z,27.8398,-97.0727,0.0,3.9,187.0,5.4,'11111222,11111222,11111222' 
TCOON,ioos:station:TCOON:009:1,2009-07-06T12:00:00Z,27.8398,-97.0727,0.0,3.5,183.0,4.8,'11111222,11111222,11111222' 
TCOON,ioos:station:TCOON:009:1,2009-07-06T13:00:00Z,27.8398,-97.0727,0.0,4.4,189.0,7.6,'11111222,11111222,11111222' 
TCOON,ioos:station:TCOON:009:1,2009-07-06T14:00:00Z,27.8398,-97.0727,0.0,5.7,178.0,9.1,'11111222,11111222,11111222' 
TCOON,ioos:station:TCOON:009:1,2009-07-06T15:00:00Z,27.8398,-97.0727,0.0,4.3,184.0,6.5,'11111222,11111222,11111222' 
TCOON,ioos:station:TCOON:009:1,2009-07-06T16:00:00Z,27.8398,-97.0727,0.0,5.4,186.0,8.2,'11111222,11111222,11111222' 
TCOON,ioos:station:TCOON:009:1,2009-07-06T17:00:00Z,27.8398,-97.0727,0.0,4.6,183.0,6.3,'11111222,11111222,11111222' 
TCOON,ioos:station:TCOON:009:1,2009-07-06T18:00:00Z,27.8398,-97.0727,0.0,3.9,161.0,6.9,'11111222,11111222,11111222' 
TCOON,ioos:station:TCOON:009:1,2009-07-06T19:00:00Z,27.8398,-97.0727,0.0,4.7,141.0,6.7,'11111222,11111222,11111222' 
TCOON,ioos:station:TCOON:009:1,2009-07-06T20:00:00Z,27.8398,-97.0727,0.0,5.6,138.0,7.9,'11111222,11111222,11111222' 
TCOON,ioos:station:TCOON:009:1,2009-07-06T21:00:00Z,27.8398,-97.0727,0.0,5.4,132.0,8.8,'11111222,11111222,11111222' 
TCOON,ioos:station:TCOON:009:1,2009-07-06T22:00:00Z,27.8398,-97.0727,0.0,5.1,135.0,8.4,'11111222,11111222,11111222' 
TCOON,ioos:station:TCOON:009:1,2009-07-06T23:00:00Z,27.8398,-97.0727,0.0,5.6,140.0,7.9,'11111222,11111222,11111222' 
TCOON,ioos:station:TCOON:009:1,2009-07-07T00:00:00Z,27.8398,-97.0727,0.0,5.2,144.0,8.5,'11111222,11111222,11111222' 
TCOON,ioos:station:TCOON:009:1,2009-07-07T01:00:00Z,27.8398,-97.0727,0.0,4.3,146.0,7.0,'11111222,11111222,11111222' 
TCOON,ioos:station:TCOON:009:1,2009-07-07T02:00:00Z,27.8398,-97.0727,0.0,5.1,144.0,6.9,'11111222,11111222,11111222' 
TCOON,ioos:station:TCOON:009:1,2009-07-07T03:00:00Z,27.8398,-97.0727,0.0,3.1,164.0,7.1,'11111222,11111222,11111222' 
TCOON,ioos:station:TCOON:009:1,2009-07-07T04:00:00Z,27.8398,-97.0727,0.0,3.4,162.0,6.0,'11111222,11111222,11111222' 
TCOON,ioos:station:TCOON:009:1,2009-07-07T05:00:00Z,27.8398,-97.0727,0.0,3.3,172.0,5.6,'11111222,11111222,11111222' 
TCOON,ioos:station:TCOON:009:1,2009-07-07T06:00:00Z,27.8398,-97.0727,0.0,3.0,185.0,4.4,'11111222,11111222,11111222' 
TCOON,ioos:station:TCOON:009:1,2009-07-07T07:00:00Z,27.8398,-97.0727,0.0,3.2,190.0,4.4,'11111222,11111222,11111222' 
TCOON,ioos:station:TCOON:009:1,2009-07-07T08:00:00Z,27.8398,-97.0727,0.0,4.1,186.0,5.1,'11111222,11111222,11111222' 
TCOON,ioos:station:TCOON:009:1,2009-07-07T09:00:00Z,27.8398,-97.0727,0.0,3.1,185.0,4.4,'11111222,11111222,11111222' 
TCOON,ioos:station:TCOON:009:1,2009-07-07T10:00:00Z,27.8398,-97.0727,0.0,3.7,186.0,5.4,'11111222,11111222,11111222' 
TCOON,ioos:station:TCOON:009:1,2009-07-07T11:00:00Z,27.8398,-97.0727,0.0,4.5,188.0,6.2,'11111222,11111222,11111222' 
TCOON,ioos:station:TCOON:009:1,2009-07-07T12:00:00Z,27.8398,-97.0727,0.0,3.4,169.0,5.2,'11111222,11111222,11111222' 
TCOON,ioos:station:TCOON:009:1,2009-07-07T13:00:00Z,27.8398,-97.0727,0.0,1.2,113.0,1.5,'11111222,11111222,11111222' 
TCOON,ioos:station:TCOON:009:1,2009-07-07T14:00:00Z,27.8398,-97.0727,0.0,0.9,235.0,2.2,'11111222,11111222,11111222' 
TCOON,ioos:station:TCOON:009:1,2009-07-07T15:00:00Z,27.8398,-97.0727,0.0,3.6,169.0,5.4,'11111222,11111222,11111222' 
TCOON,ioos:station:TCOON:009:1,2009-07-07T16:00:00Z,27.8398,-97.0727,0.0,3.9,162.0,6.0,'11111222,11111222,11111222' 
TCOON,ioos:station:TCOON:009:1,2009-07-07T17:00:00Z,27.8398,-97.0727,0.0,2.4,164.0,4.3,'11111222,11111222,11111222' 
TCOON,ioos:station:TCOON:009:1,2009-07-07T18:00:00Z,27.8398,-97.0727,0.0,2.4,157.0,3.7,'11111222,11111222,11111222' 
TCOON,ioos:station:TCOON:009:1,2009-07-07T19:00:00Z,27.8398,-97.0727,0.0,4.2,153.0,6.7,'11111222,11111222,11111222' 
TCOON,ioos:station:TCOON:009:1,2009-07-07T20:00:00Z,27.8398,-97.0727,0.0,4.1,148.0,7.2,'11111222,11111222,11111222' 
TCOON,ioos:station:TCOON:009:1,2009-07-07T21:00:00Z,27.8398,-97.0727,0.0,4.7,148.0,6.8,'11111222,11111222,11111222' 
TCOON,ioos:station:TCOON:009:1,2009-07-07T22:00:00Z,27.8398,-97.0727,0.0,7.0,147.0,10.3,'11111222,11111222,11111222' 
TCOON,ioos:station:TCOON:009:1,2009-07-07T23:00:00Z,27.8398,-97.0727,0.0,3.4,143.0,5.5,'11111222,11111222,11111222' 
TCOON,ioos:station:TCOON:009:1,2009-07-08T00:00:00Z,27.8398,-97.0727,0.0,3.6,148.0,5.4,'11111222,11111222,11111222' 
TCOON,ioos:station:TCOON:009:1,2009-07-08T01:00:00Z,27.8398,-97.0727,0.0,3.4,147.0,6.2,'11111222,11111222,11111222' 
TCOON,ioos:station:TCOON:009:1,2009-07-08T02:00:00Z,27.8398,-97.0727,0.0,3.3,160.0,4.6,'11111222,11111222,11111222' 
TCOON,ioos:station:TCOON:009:1,2009-07-08T03:00:00Z,27.8398,-97.0727,0.0,2.9,154.0,5.0,'11111222,11111222,11111222' 
TCOON,ioos:station:TCOON:009:1,2009-07-08T04:00:00Z,27.8398,-97.0727,0.0,2.6,167.0,5.0,'11111222,11111222,11111222' 
TCOON,ioos:station:TCOON:009:1,2009-07-08T05:00:00Z,27.8398,-97.0727,0.0,2.4,165.0,4.2,'11111222,11111222,11111222' 
TCOON,ioos:station:TCOON:009:1,2009-07-08T06:00:00Z,27.8398,-97.0727,0.0,2.2,158.0,3.8,'11111222,11111222,11111222' 
TCOON,ioos:station:TCOON:009:1,2009-07-08T07:00:00Z,27.8398,-97.0727,0.0,3.0,185.0,4.5,'11111222,11111222,11111222' 
TCOON,ioos:station:TCOON:009:1,2009-07-08T08:00:00Z,27.8398,-97.0727,0.0,2.8,179.0,4.0,'11111222,11111222,11111222' 
TCOON,ioos:station:TCOON:009:1,2009-07-08T09:00:00Z,27.8398,-97.0727,0.0,3.9,180.0,5.7,'11111222,11111222,11111222' 
TCOON,ioos:station:TCOON:009:1,2009-07-08T10:00:00Z,27.8398,-97.0727,0.0,3.0,162.0,4.2,'11111222,11111222,11111222' 
TCOON,ioos:station:TCOON:009:1,2009-07-08T11:00:00Z,27.8398,-97.0727,0.0,2.7,177.0,3.8,'11111222,11111222,11111222' 
TCOON,ioos:station:TCOON:009:1,2009-07-08T12:00:00Z,27.8398,-97.0727,0.0,2.3,171.0,3.7,'11111222,11111222,11111222' 
TCOON,ioos:station:TCOON:009:1,2009-07-08T13:00:00Z,27.8398,-97.0727,0.0,3.8,184.0,5.1,'11111222,11111222,11111222' 
TCOON,ioos:station:TCOON:009:1,2009-07-08T14:00:00Z,27.8398,-97.0727,0.0,3.1,180.0,5.1,'11111222,11111222,11111222' 
TCOON,ioos:station:TCOON:009:1,2009-07-08T15:00:00Z,27.8398,-97.0727,0.0,4.3,171.0,6.4,'11111222,11111222,11111222' 
TCOON,ioos:station:TCOON:009:1,2009-07-08T16:00:00Z,27.8398,-97.0727,0.0,5.5,178.0,7.7,'11111222,11111222,11111222' 
TCOON,ioos:station:TCOON:009:1,2009-07-08T17:00:00Z,27.8398,-97.0727,0.0,3.7,167.0,16.7,'11111222,11111222,11111222' 
TCOON,ioos:station:TCOON:009:1,2009-07-08T18:00:00Z,27.8398,-97.0727,0.0,4.0,154.0,6.4,'11111222,11111222,11111222' 
TCOON,ioos:station:TCOON:009:1,2009-07-08T19:00:00Z,27.8398,-97.0727,0.0,5.2,149.0,7.8,'11111222,11111222,11111222' 
TCOON,ioos:station:TCOON:009:1,2009-07-08T20:00:00Z,27.8398,-97.0727,0.0,3.4,146.0,8.8,'11111222,11111222,11111222' 
TCOON,ioos:station:TCOON:009:1,2009-07-08T21:00:00Z,27.8398,-97.0727,0.0,4.9,149.0,8.1,'11111222,11111222,11111222' 
TCOON,ioos:station:TCOON:009:1,2009-07-08T22:00:00Z,27.8398,-97.0727,0.0,5.9,146.0,10.6,'11111222,11111222,11111222' 
TCOON,ioos:station:TCOON:009:1,2009-07-08T23:00:00Z,27.8398,-97.0727,0.0,5.9,147.0,8.4,'11111222,11111222,11111222' 
TCOON,ioos:station:TCOON:009:1,2009-07-09T00:00:00Z,27.8398,-97.0727,0.0,5.6,161.0,8.3,'11111222,11111222,11111222' 
TCOON,ioos:station:TCOON:009:1,2009-07-09T01:00:00Z,27.8398,-97.0727,0.0,3.8,149.0,7.0,'11111222,11111222,11111222' 
TCOON,ioos:station:TCOON:009:1,2009-07-09T02:00:00Z,27.8398,-97.0727,0.0,4.0,147.0,5.9,'11111222,11111222,11111222' 
TCOON,ioos:station:TCOON:009:1,2009-07-09T03:00:00Z,27.8398,-97.0727,0.0,3.4,154.0,6.2,'11111222,11111222,11111222' 
TCOON,ioos:station:TCOON:009:1,2009-07-09T04:00:00Z,27.8398,-97.0727,0.0,2.5,164.0,4.4,'11111222,11111222,11111222' 
TCOON,ioos:station:TCOON:009:1,2009-07-09T05:00:00Z,27.8398,-97.0727,0.0,4.7,175.0,6.1,'11111222,11111222,11111222' 
TCOON,ioos:station:TCOON:009:1,2009-07-09T06:00:00Z,27.8398,-97.0727,0.0,3.7,175.0,5.7,'11111222,11111222,11111222' 
TCOON,ioos:station:TCOON:009:1,2009-07-09T07:00:00Z,27.8398,-97.0727,0.0,3.5,174.0,5.6,'11111222,11111222,11111222' 
TCOON,ioos:station:TCOON:009:1,2009-07-09T08:00:00Z,27.8398,-97.0727,0.0,3.0,180.0,4.4,'11111222,11111222,11111222' 
TCOON,ioos:station:TCOON:009:1,2009-07-09T09:00:00Z,27.8398,-97.0727,0.0,3.0,184.0,4.1,'11111222,11111222,11111222' 
TCOON,ioos:station:TCOON:009:1,2009-07-09T10:00:00Z,27.8398,-97.0727,0.0,2.4,186.0,3.2,'11111222,11111222,11111222' 
TCOON,ioos:station:TCOON:009:1,2009-07-09T11:00:00Z,27.8398,-97.0727,0.0,1.7,180.0,2.6,'11111222,11111222,11111222' 
TCOON,ioos:station:TCOON:009:1,2009-07-09T12:00:00Z,27.8398,-97.0727,0.0,1.4,182.0,1.7,'11111222,11111222,11111222' 